Temp
58 59 61 64 65 65 65 64 62 60 58 58 56 53 52 51 51 50 47 45 44 42 42 41 39 39 38 37 38 38 37 38 36 36 39 37 36 35 37 37 37 36 35
55 56 56 58 59 59 59 59 58 56 54 54 52 51 50 50 49 48 47 45 44 41 41 39 39 41 37 38 37 37 37 39 37 34 36 33 34 35 34 33 37 39 34
54 53 53 54 55 56 56 54 54 52 51 50 50 49 48 48 48 47 47 45 43 43 41 39 38 38 36 35 36 36 37 39 37 34 31 32 33 32 30 31 32 31 36
51 51 50 50 52 53 54 53 51 50 48 47 48 48 47 47 47 45 44 44 42 41 39 38 38 38 36 36 36 35 36 33 33 30 30 30 28 29 28 27 26 26 27
48 48 48 48 49 49 47 45 44 45 45 44 43 42 42 44 44 41 41 42 39 37 36 37 37 37 38 39 37 34 34 32 32 31 31 28 27 27 28 28 27 25 27
46 46 46 45 43 41 40 39 39 38 39 38 38 39 40 42 43 43 42 40 38 37 35 34 36 35 38 40 40 39 38 34 32 31 31 31 31 29 27 27 27 27 21
43 41 40 39 38 38 37 36 36 37 37 37 37 37 38 38 41 41 40 39 37 36 35 34 33 34 34 34 39 39 39 40 38 34 31 30 28 29 27 24 29 29 27
38 38 37 37 36 35 34 36 36 36 36 36 36 37 37 36 41 40 38 37 36 35 34 34 34 32 33 34 34 33 33 34 35 35 31 31 31 31 30 28 26 26 28
37 37 36 35 33 33 33 35 35 34 34 34 34 34 35 34 40 39 37 35 34 35 34 33 33 33 35 37 32 31 31 32 37 38 37 38 38 38 34 25 25 25 24
36 36 36 35 32 32 32 32 31 34 34 34 33 34 34 34 38 38 38 36 34 33 32 32 32 34 36 37 32 31 29 31 31 29 30 34 37 35 38 28 23 20 25
36 34 32 32 30 31 30 29 30 30 33 33 33 33 34 35 36 39 38 35 35 32 31 31 33 37 37 37 36 32 32 32 33 29 28 28 29 27 28 28 27 28 26
30 30 29 28 30 31 28 29 32 33 33 32 32 31 32 33 35 38 39 38 37 33 31 32 33 37 37 37 36 35 36 34 31 29 27 28 28 30 28 30 29 29 29
29 25 29 29 31 31 27 31 32 32 32 31 32 31 31 32 34 38 38 38 38 33 33 34 35 36 37 37 37 37 33 32 30 29 29 29 29 28 28 28 28 29 28
32 30 28 28 26 26 29 30 32 32 32 32 32 32 32 31 33 34 35 36 35 34 35 34 35 35 36 35 32 35 33 32 31 31 30 28 27 26 27 27 25 26 25
27 28 29 29 27 27 28 28 28 29 33 33 34 34 33 30 32 35 35 33 34 34 32 31 31 31 30 31 30 31 31 30 29 29 26 25 25 25 25 26 26 24 22
26 25 25 25 25 25 25 27 35 36 37 38 38 35 31 37 38 36 37 37 37 36 31 30 29 29 29 29 29 29 29 29 28 27 25 25 25 24 24 24 24 22 20
21 24 24 24 24 24 24 24 24 29 36 36 37 37 38 35 38 37 37 37 37 37 31 30 29 29 29 29 29 28 27 28 27 25 25 24 24 23 22 22 22 21 19
26 26 21 22 24 24 23 23 22 22 21 22 30 35 35 37 37 38 37 36 32 34 33 31 30 30 30 29 28 28 28 25 23 24 23 23 22 22 20 20 19 17 18
24 28 28 29 29 28 27 25 25 25 22 22 20 28 27 35 37 36 36 32 30 31 32 32 32 31 30 29 29 28 27 23 23 21 20 20 20 20 19 18 17 16 15
27 28 28 28 29 29 25 23 24 24 24 28 24 21 19 22 28 30 31 32 31 30 31 31 31 31 31 30 28 26 24 22 20 19 19 19 19 18 17 14 15 12 9
23 25 26 27 28 27 27 26 20 19 21 23 18 19 33 28 26 26 29 30 31 31 31 32 32 32 31 29 26 23 22 21 20 19 18 17 16 15 15 14 12 10 6
9 9 11 17 20 24 23 19 21 22 24 26 27 26 32 28 28 27 28 30 31 32 32 32 31 28 26 23 22 20 19 18 17 16 16 15 14 13 13 11 11 10 6
8 7 7 8 9 17 20 20 21 22 22 22 15 19 15 13 21 25 26 24 24 25 24 24 25 23 23 22 22 21 19 18 18 17 16 14 13 12 12 10 10 9 8
1 2 4 3 3 5 7 15 18 19 19 20 16 11 13 13 11 15 20 23 24 24 24 23 22 22 19 18 18 18 19 18 17 16 16 14 12 11 10 10 9 9 8
-1 -0 -2 -1 -2 0 3 3 5 6 11 9 10 6 4 4 6 8 11 16 18 18 16 14 17 17 17 15 15 14 15 16 14 14 14 12 11 10 10 9 9 8 8
-4 -4 -6 -6 -5 -4 -3 0 2 3 4 6 6 8 8 7 6 5 5 8 12 10 9 6 7 10 11 13 12 12 13 15 12 12 12 12 10 9 9 8 8 7 7
MSLP
1013.89 1013.88 1013.96 1014.24 1014.47 1014.68 1015.03 1015.33 1015.53 1015.88 1016.18 1016.83 1017.60 1018.23 1019.06 1019.84 1020.19 1020.77 1021.25 1022.16 1022.88 1023.86 1024.01 1024.61 1025.25 1025.87 1026.58 1026.76 1027.06 1027.54 1027.83 1028.28 1029.14 1030.13 1030.17 1030.54 1030.77 1030.99 1031.19 1031.31 1031.41 1031.35 1031.24
1013.87 1013.97 1014.10 1014.18 1014.33 1014.67 1014.76 1015.09 1015.70 1016.21 1016.60 1016.79 1017.30 1018.06 1018.53 1019.25 1019.73 1020.16 1020.76 1021.66 1022.27 1023.47 1024.16 1024.65 1025.08 1025.94 1026.47 1026.72 1027.21 1027.79 1028.03 1028.33 1028.82 1029.72 1030.15 1030.37 1030.64 1030.86 1030.94 1031.24 1031.14 1031.06 1030.96
1013.88 1014.01 1014.22 1014.29 1014.47 1014.63 1014.82 1015.30 1015.60 1016.22 1016.72 1017.20 1017.56 1018.11 1018.45 1018.91 1019.47 1019.68 1020.12 1020.55 1021.61 1022.60 1023.42 1024.24 1024.55 1025.37 1026.20 1026.69 1027.12 1027.43 1027.97 1028.39 1028.94 1029.71 1030.28 1030.22 1030.72 1030.96 1031.15 1031.22 1031.11 1031.24 1030.88
1013.43 1013.59 1013.95 1014.33 1014.31 1014.37 1014.80 1015.19 1015.71 1016.08 1016.56 1017.00 1017.21 1017.64 1018.17 1018.68 1019.24 1019.49 1019.92 1020.58 1021.19 1022.24 1022.98 1023.85 1024.15 1024.72 1025.52 1026.11 1026.68 1027.18 1027.64 1028.32 1028.99 1029.61 1029.84 1030.36 1030.78 1030.89 1031.04 1031.16 1031.37 1031.30 1031.00
1013.72 1014.18 1014.33 1014.32 1014.49 1014.88 1015.32 1015.71 1016.07 1016.41 1016.75 1016.93 1017.34 1017.79 1018.21 1018.49 1018.77 1019.35 1019.53 1020.71 1020.86 1022.16 1022.81 1023.80 1024.17 1024.52 1025.16 1025.71 1026.40 1027.03 1027.54 1028.31 1028.96 1029.47 1029.59 1030.17 1030.61 1030.99 1030.93 1031.05 1031.36 1031.34 1030.74
1013.53 1013.95 1014.30 1014.66 1015.06 1015.34 1015.58 1015.96 1016.43 1016.89 1017.10 1017.31 1017.67 1017.97 1018.21 1018.21 1018.60 1018.98 1019.56 1020.50 1020.96 1021.99 1022.70 1023.74 1024.16 1024.70 1025.10 1025.39 1025.85 1026.57 1026.78 1027.25 1028.13 1028.70 1029.08 1029.52 1030.21 1030.37 1030.63 1031.09 1031.38 1031.31 1030.91
1013.26 1013.74 1014.20 1014.57 1015.04 1015.43 1015.66 1016.02 1016.55 1017.02 1017.46 1017.97 1018.34 1018.28 1018.42 1018.45 1018.61 1019.22 1019.99 1019.87 1021.29 1021.69 1022.40 1023.40 1024.35 1024.68 1025.28 1025.70 1025.94 1026.52 1026.81 1027.06 1027.33 1027.81 1028.61 1028.90 1029.52 1029.81 1030.08 1030.62 1030.84 1030.82 1030.76
1013.76 1013.85 1013.88 1014.10 1014.45 1015.01 1015.52 1015.86 1016.26 1016.68 1017.02 1017.62 1018.08 1018.22 1018.52 1018.72 1019.07 1019.09 1019.80 1020.42 1021.20 1021.64 1022.10 1022.82 1023.49 1024.14 1024.89 1025.39 1025.80 1026.32 1026.99 1027.19 1027.04 1027.34 1028.20 1028.41 1028.75 1029.32 1029.67 1029.97 1030.18 1030.44 1030.44
1015.18 1015.48 1015.07 1014.84 1014.97 1015.08 1014.96 1015.43 1015.91 1016.24 1016.63 1016.88 1017.30 1017.93 1018.41 1018.55 1018.93 1019.32 1019.69 1020.32 1021.04 1021.42 1022.03 1022.45 1023.05 1023.56 1024.21 1024.94 1025.46 1026.08 1026.65 1026.85 1026.73 1026.88 1027.53 1027.78 1027.99 1028.48 1028.97 1029.68 1030.16 1030.12 1029.95
1014.35 1015.06 1015.65 1015.47 1015.50 1015.52 1015.28 1014.95 1015.18 1015.73 1016.42 1016.78 1016.81 1017.01 1017.50 1018.28 1018.64 1018.63 1019.37 1019.95 1020.54 1021.23 1021.65 1022.35 1022.52 1023.08 1023.54 1024.20 1024.65 1025.21 1025.99 1026.06 1026.66 1026.94 1027.24 1027.29 1027.38 1027.77 1027.91 1028.52 1029.15 1029.45 1029.50
1014.33 1014.12 1014.88 1015.60 1015.91 1015.60 1015.72 1015.53 1015.27 1015.78 1016.27 1016.75 1016.96 1017.26 1017.23 1017.69 1018.20 1018.46 1018.95 1019.41 1019.79 1020.52 1021.15 1021.88 1021.81 1022.20 1022.75 1023.32 1024.04 1024.40 1024.61 1025.30 1025.83 1026.64 1026.68 1027.05 1027.48 1027.74 1027.81 1027.98 1028.40 1028.64 1028.70
1014.60 1014.94 1015.11 1015.17 1015.73 1016.15 1016.04 1016.17 1016.03 1015.94 1016.17 1016.58 1017.09 1017.44 1017.52 1017.56 1017.93 1018.47 1018.60 1018.90 1019.40 1019.97 1020.29 1020.92 1021.16 1021.64 1022.17 1022.73 1023.37 1023.80 1024.21 1024.79 1025.44 1026.13 1026.40 1026.50 1026.78 1026.90 1026.98 1027.17 1027.51 1027.79 1028.04
1015.41 1015.26 1015.50 1015.50 1015.49 1016.08 1016.36 1016.27 1016.39 1016.11 1016.38 1016.77 1017.22 1017.41 1017.52 1017.56 1017.76 1018.04 1018.41 1018.87 1019.27 1019.67 1019.84 1020.38 1020.67 1021.15 1021.65 1022.12 1022.46 1023.06 1023.76 1024.24 1024.86 1025.32 1025.43 1025.64 1025.94 1025.94 1026.23 1026.61 1026.96 1027.17 1027.40
1015.73 1016.01 1015.99 1015.95 1015.85 1016.23 1016.26 1016.14 1016.12 1016.02 1016.12 1016.42 1016.81 1017.04 1017.28 1017.56 1017.61 1017.77 1018.14 1018.61 1019.12 1019.50 1019.70 1020.21 1020.38 1020.77 1021.19 1021.60 1022.07 1022.41 1022.91 1023.31 1023.84 1023.91 1024.34 1024.74 1025.18 1025.35 1025.68 1026.08 1026.51 1026.75 1026.93
1016.28 1016.19 1016.52 1016.54 1016.47 1016.60 1016.61 1016.45 1016.08 1015.80 1015.78 1016.15 1016.37 1016.41 1016.47 1016.70 1016.67 1017.23 1017.80 1018.18 1018.40 1018.68 1019.50 1019.98 1020.16 1020.43 1020.72 1021.02 1021.47 1021.77 1022.16 1022.76 1023.01 1023.39 1023.61 1024.07 1024.42 1024.65 1024.89 1025.38 1025.82 1026.01 1026.25
1016.60 1016.37 1016.38 1016.62 1016.89 1017.00 1017.00 1016.68 1016.15 1016.06 1016.16 1016.29 1016.35 1016.28 1016.14 1015.98 1016.16 1016.48 1016.72 1016.96 1017.32 1017.95 1018.70 1019.09 1019.23 1019.54 1019.86 1020.12 1020.50 1020.93 1021.33 1021.90 1021.99 1022.50 1022.99 1023.34 1023.65 1023.93 1024.22 1024.64 1025.09 1025.33 1025.58
1017.57 1017.43 1017.16 1016.92 1016.85 1016.85 1016.94 1017.05 1016.87 1016.25 1016.24 1016.36 1016.34 1016.16 1016.00 1015.83 1016.06 1016.21 1016.58 1016.64 1016.75 1017.26 1017.36 1017.70 1017.99 1018.35 1018.62 1018.96 1019.30 1019.78 1020.23 1020.72 1021.35 1021.71 1022.09 1022.44 1022.74 1023.13 1023.58 1024.00 1024.35 1024.67 1024.91
1017.61 1017.19 1017.10 1016.98 1016.85 1017.11 1017.11 1016.96 1016.87 1016.96 1017.00 1016.71 1016.14 1015.96 1015.94 1015.82 1015.78 1015.86 1015.96 1016.28 1016.61 1016.32 1016.32 1016.63 1017.00 1017.24 1017.58 1018.00 1018.34 1018.76 1019.30 1020.11 1020.45 1020.82 1021.19 1021.54 1021.97 1022.42 1022.88 1023.20 1023.57 1024.02 1024.37
1018.05 1017.62 1017.23 1017.18 1016.94 1017.28 1017.12 1017.22 1017.27 1017.09 1016.91 1016.69 1016.45 1016.02 1015.80 1015.74 1015.62 1015.69 1015.82 1015.81 1015.84 1015.86 1015.89 1015.90 1015.96 1016.14 1016.39 1016.82 1017.15 1017.47 1018.09 1018.88 1019.36 1019.86 1020.34 1020.71 1021.15 1021.73 1022.17 1022.58 1022.95 1023.29 1023.69
1018.59 1018.06 1017.76 1017.67 1017.65 1017.52 1017.20 1017.08 1016.97 1016.87 1016.82 1016.71 1016.54 1016.52 1015.98 1015.80 1015.69 1015.63 1015.70 1015.61 1015.29 1015.15 1015.20 1015.13 1015.24 1015.27 1015.36 1015.57 1016.10 1016.51 1017.42 1017.92 1018.34 1019.03 1019.43 1019.81 1020.30 1020.85 1021.37 1021.80 1022.28 1022.72 1023.07
1019.36 1018.65 1018.32 1018.27 1018.11 1018.15 1017.58 1017.19 1017.10 1016.89 1016.69 1016.59 1016.52 1016.20 1015.74 1015.72 1015.52 1015.38 1015.18 1015.02 1014.78 1014.60 1014.54 1014.62 1014.72 1014.78 1015.01 1015.09 1015.56 1016.13 1016.59 1017.09 1017.35 1017.71 1018.35 1018.80 1019.48 1020.20 1020.73 1021.32 1021.87 1022.21 1022.67
1020.29 1020.16 1019.75 1019.25 1018.97 1018.85 1018.46 1018.23 1017.71 1017.51 1016.95 1016.50 1016.23 1015.82 1015.40 1015.41 1015.37 1015.07 1014.83 1014.69 1014.51 1014.29 1014.07 1013.92 1013.93 1014.05 1014.48 1014.79 1015.22 1015.70 1015.89 1016.23 1016.77 1017.25 1017.72 1018.08 1018.43 1019.29 1020.03 1020.70 1021.14 1021.51 1022.23
1020.70 1020.90 1020.62 1020.62 1020.13 1019.59 1019.27 1018.86 1018.38 1018.07 1017.69 1017.33 1017.02 1016.58 1016.26 1016.04 1015.69 1015.24 1014.89 1014.50 1014.35 1014.19 1014.06 1013.89 1013.78 1013.71 1014.03 1014.12 1014.26 1014.52 1014.89 1015.18 1015.54 1016.08 1016.47 1017.02 1017.31 1018.07 1018.59 1019.45 1020.22 1021.09 1021.48
1021.19 1021.51 1021.51 1021.35 1020.86 1020.50 1020.10 1019.66 1019.20 1018.85 1018.45 1017.99 1017.54 1017.14 1016.95 1016.51 1016.19 1015.66 1015.27 1014.89 1014.53 1014.19 1013.88 1014.09 1014.16 1013.91 1013.79 1013.88 1013.98 1014.14 1014.17 1014.38 1014.75 1015.12 1015.55 1016.22 1016.84 1017.73 1018.45 1018.63 1019.07 1019.89 1020.65
1021.83 1021.99 1021.89 1021.58 1021.36 1021.12 1020.72 1020.27 1019.82 1019.24 1018.83 1018.52 1018.14 1017.78 1017.36 1016.82 1016.53 1016.04 1015.67 1015.43 1014.94 1014.68 1014.55 1013.96 1013.84 1013.99 1013.95 1013.70 1013.66 1013.78 1013.85 1014.00 1014.40 1014.90 1015.65 1016.02 1016.37 1017.06 1017.59 1018.13 1018.40 1019.15 1019.88
1021.96 1021.97 1021.87 1022.00 1021.91 1021.39 1020.95 1020.54 1020.13 1019.66 1019.31 1018.96 1018.61 1018.12 1017.57 1017.28 1016.68 1016.10 1015.65 1015.32 1015.13 1014.78 1014.44 1014.30 1013.97 1013.94 1013.88 1013.61 1013.63 1013.59 1013.73 1014.06 1014.19 1014.22 1014.58 1014.99 1015.55 1016.18 1016.90 1017.37 1017.88 1018.42 1018.93
Wind_Speed
8 7 8 10 11 10 11 9 7 6 9 12 12 11 10 10 10 10 9 9 9 7 7 9 7 6 4 4 4 3 3 3 4 0 2 2 2 2 2 2 3 3 2
5 6 5 4 4 6 6 6 4 5 5 10 10 10 11 11 12 13 12 11 12 11 10 10 10 7 6 6 4 4 4 3 3 4 2 2 2 2 2 2 2 3 3
3 4 3 4 3 5 5 4 6 6 6 5 8 10 10 12 12 11 13 14 13 12 12 12 12 11 8 5 5 5 4 3 3 3 3 1 1 1 1 2 1 3 3
6 7 7 7 7 6 6 6 6 7 7 7 8 9 10 11 10 10 12 12 11 11 10 10 12 12 11 10 7 7 6 5 3 2 2 2 2 3 2 2 2 1 3
5 5 5 4 3 1 1 2 3 4 4 6 7 6 6 9 9 11 11 11 12 10 9 8 8 9 12 11 7 7 7 5 3 3 2 2 3 1 2 2 1 2 4
7 7 5 4 3 3 5 5 4 4 5 5 6 7 9 7 11 15 12 9 12 12 11 7 7 9 12 15 13 13 11 10 7 4 3 4 4 3 2 2 1 2 3
7 6 6 6 6 6 5 5 4 4 3 5 4 5 7 5 13 14 10 10 10 11 11 11 8 6 8 8 11 12 11 13 10 6 5 4 3 4 4 2 4 3 3
3 5 6 7 7 6 6 6 5 4 6 5 5 5 4 3 14 16 12 7 8 8 10 11 11 11 10 10 9 8 6 6 7 5 5 4 4 5 5 4 3 1 3
5 6 5 5 4 6 7 7 5 5 5 5 5 5 6 5 16 17 13 9 9 9 9 10 11 12 16 18 10 9 8 7 10 12 11 10 10 11 9 4 4 3 2
2 4 6 5 3 5 5 6 4 4 4 4 5 7 8 9 17 20 16 8 9 7 7 8 12 13 21 22 11 10 9 9 8 4 3 6 9 9 12 6 4 3 3
1 2 1 2 3 2 2 2 4 4 5 4 5 4 7 9 13 21 19 8 8 8 8 8 8 21 23 23 18 10 9 7 10 7 5 4 4 4 4 5 5 6 5
3 3 2 2 0 1 3 1 2 4 5 5 5 3 3 6 12 19 21 15 13 9 10 8 8 21 21 22 17 15 14 8 4 5 4 5 6 7 5 6 8 7 5
5 3 2 2 2 2 3 3 2 3 3 3 4 4 4 4 6 17 19 17 15 8 5 10 15 21 21 18 20 17 12 6 7 7 8 7 5 4 4 4 4 6 7
5 4 3 2 2 1 0 1 3 4 4 4 5 5 4 4 6 7 9 9 10 6 8 8 11 13 14 11 7 12 8 8 9 8 7 4 3 4 4 4 3 4 4
4 3 3 2 1 1 2 3 2 2 3 4 6 5 6 7 9 10 10 9 9 11 7 4 6 7 8 7 6 8 7 7 9 7 5 5 4 5 5 5 5 4 6
4 3 3 2 1 1 2 4 5 7 7 10 9 5 2 8 12 20 21 22 21 19 8 9 10 9 9 9 9 9 8 10 9 7 7 7 7 7 6 5 5 6 5
4 4 3 2 1 1 1 2 3 4 7 7 9 9 10 7 10 17 20 22 22 19 11 10 11 11 10 9 9 9 10 10 8 8 8 8 7 7 7 6 6 6 6
4 4 2 2 2 3 3 2 2 2 3 4 6 10 10 11 11 15 20 19 10 17 11 10 10 9 9 9 9 9 8 7 9 8 8 8 8 8 7 8 7 7 6
5 5 4 3 2 2 1 2 2 2 3 4 3 4 5 12 13 13 17 10 10 11 12 11 10 10 9 9 9 9 10 9 9 8 8 8 8 8 8 7 7 9 6
5 9 7 4 5 4 2 2 2 2 3 4 3 4 3 1 4 7 7 9 9 9 10 11 11 10 9 9 8 8 8 8 9 9 8 8 8 8 8 8 8 6 4
5 4 7 4 5 4 4 2 2 2 2 2 3 4 12 5 5 5 7 8 9 10 10 9 9 9 8 7 7 7 8 8 9 10 9 9 8 9 7 7 6 5 4
3 4 4 4 3 5 5 5 5 5 4 5 5 4 14 6 5 5 7 8 8 8 7 7 6 5 5 6 7 8 9 9 9 9 9 8 8 8 8 7 7 6 6
4 4 4 4 5 6 5 6 6 6 7 7 4 6 3 3 4 6 6 4 3 3 2 2 4 5 6 7 8 9 9 10 10 10 11 11 10 10 10 9 8 7 7
3 3 3 3 3 4 4 6 7 9 9 8 5 4 4 4 4 5 7 7 6 6 5 5 5 7 5 6 6 7 8 7 7 9 12 9 9 9 7 8 9 10 9
3 3 3 2 2 3 4 4 4 5 5 5 5 4 3 3 4 4 4 6 7 6 5 3 4 7 8 10 9 9 8 11 9 9 7 8 10 12 10 8 9 9 9
3 3 2 2 3 3 3 4 4 4 4 5 5 5 5 5 5 5 4 4 7 6 6 3 4 8 9 8 9 9 10 11 11 14 10 9 10 9 8 9 12 9 9
Wind_Direction
220 228 224 226 227 219 219 219 204 168 166 169 172 165 172 175 171 163 154 155 147 155 152 153 149 142 147 137 116 120 120 119 126 322 122 145 145 148 36 358 296 307 324
231 225 239 244 221 213 208 201 168 171 178 169 163 175 172 178 176 168 162 161 160 166 171 157 152 151 149 147 141 145 147 140 133 158 169 147 159 167 170 268 261 300 294
200 190 217 230 233 213 198 173 169 162 167 164 167 178 180 181 181 175 171 164 172 172 170 169 162 153 157 152 160 156 146 139 131 128 177 117 161 170 299 284 260 279 298
173 185 201 211 209 200 186 175 178 175 173 176 184 182 182 178 183 183 168 165 164 167 163 166 161 164 163 162 168 166 155 139 141 146 138 145 163 235 170 170 308 296 270
189 216 229 222 216 223 54 126 137 158 186 175 166 167 174 178 179 173 164 175 151 153 144 156 163 156 160 167 163 166 153 147 144 169 148 154 195 183 183 215 209 284 292
191 210 199 177 145 140 147 153 167 178 181 166 184 182 188 192 184 179 168 165 154 159 154 143 153 151 164 166 166 170 170 167 179 174 177 188 198 165 150 166 242 294 314
199 190 176 159 168 183 175 164 182 186 162 198 205 183 204 191 173 172 169 148 154 154 158 156 160 166 152 155 159 172 180 188 186 173 180 180 161 174 146 199 220 244 252
231 196 181 183 192 175 170 181 178 169 183 184 195 197 184 180 180 164 147 136 148 156 158 164 169 166 172 165 164 165 181 199 194 177 186 179 163 166 170 182 183 218 265
311 286 253 212 184 181 180 180 175 166 171 180 165 165 169 163 174 164 145 146 163 170 173 167 168 171 179 174 168 178 192 198 204 201 209 207 205 203 194 128 203 196 254
235 271 271 243 202 214 200 169 153 150 171 161 160 167 159 166 180 174 175 174 172 167 161 171 166 172 178 185 180 175 193 199 194 196 198 220 223 218 213 183 173 195 215
297 162 185 279 264 217 167 174 139 135 137 161 166 168 162 168 181 179 177 178 178 171 175 183 184 187 187 192 189 190 194 161 192 204 190 187 210 203 194 179 184 219 217
65 73 102 140 265 209 137 59 124 147 156 164 168 165 177 174 185 194 192 192 180 176 184 193 188 190 192 196 198 203 200 190 170 194 195 203 208 212 199 195 194 197 223
47 69 72 112 133 193 153 152 139 142 158 174 196 201 195 178 186 197 199 198 196 193 183 192 185 192 197 203 208 208 203 198 200 206 215 215 203 191 149 140 175 200 210
68 38 41 82 96 157 206 161 171 177 181 184 197 210 194 192 196 197 200 200 203 187 177 190 189 190 195 196 198 214 209 209 215 216 218 193 181 169 166 169 189 200 213
56 63 37 9 38 255 253 212 214 249 189 211 222 211 197 200 208 197 193 192 195 200 167 156 179 184 191 196 199 207 212 205 205 212 187 184 188 180 181 176 203 192 219
42 41 44 32 14 339 307 307 267 245 261 259 260 227 260 236 201 204 205 204 202 194 182 198 201 196 201 202 207 210 209 213 210 202 205 204 209 205 192 188 196 203 211
27 2 359 27 38 20 332 307 311 320 283 284 284 278 256 224 218 202 211 214 209 198 209 207 207 208 208 205 203 205 209 212 201 201 204 206 201 199 185 195 200 199 206
42 51 49 2 27 3 349 326 333 326 297 295 278 262 270 262 227 213 213 216 224 223 219 217 218 211 207 207 204 206 209 201 196 200 203 201 199 198 196 201 197 207 210
27 25 9 355 23 327 317 298 266 274 279 284 314 298 292 267 255 235 225 224 225 228 228 226 220 213 210 208 208 203 200 196 196 192 198 196 196 193 206 202 194 195 178
19 23 20 8 358 348 331 308 303 291 292 288 284 275 282 196 247 244 241 244 235 234 233 232 228 225 219 210 208 196 200 194 187 196 200 197 195 197 203 196 194 185 181
14 10 1 2 360 333 328 309 289 281 258 262 260 258 290 264 249 243 250 245 245 236 238 240 239 237 230 215 200 197 204 209 203 194 194 193 186 195 195 196 193 180 153
352 350 348 351 345 339 345 336 330 313 308 308 307 296 306 294 281 260 254 252 250 251 252 244 235 207 195 185 185 195 198 201 197 197 200 196 181 183 182 183 189 183 171
2 356 355 341 339 335 333 329 323 319 316 314 313 314 317 294 301 304 301 282 286 285 290 257 221 210 205 208 205 207 211 216 210 197 192 193 185 187 182 184 187 183 180
2 352 346 327 334 332 322 327 322 315 312 312 313 305 309 301 291 290 300 300 280 271 262 255 257 254 229 222 214 217 223 216 201 196 185 187 184 183 185 181 178 184 186
342 338 339 320 313 298 303 301 302 304 312 309 302 291 282 287 291 290 297 302 301 296 280 247 251 259 253 230 220 211 204 193 178 171 184 181 179 185 185 187 180 180 180
323 323 309 320 317 316 320 317 309 311 309 308 312 314 309 303 290 288 291 294 298 292 283 271 255 251 252 242 226 206 201 200 187 183 182 183 180 180 183 183 181 183 182